Tracking 20083 objects as of 9-Dec-2019
HD Live streaming from Space Station
objects crossing your sky now

FENGYUN 1C DEB

Track FENGYUN 1C DEB now!
10-day predictions


NORAD ID: 35129
Int'l Code: 1999-025DLH
Perigee: 775.5 km
Apogee: 981.7 km
Inclination: 98.3 °
Period: 102.4 minutes
Semi major axis: 7249 km
RCS: 0.0081 m2 (small)
Launch date: May 10, 1999
Source: People's Republic of China (PRC)
Launch site: Taiyaun Space Center, China (TSC)

Note: This is SATELLITE DEBRIS
aabbcc
Your satellite tracking list
Your tracking list is empty




NASA's NSSDC Master Catalog

Two Line Element Set (TLE):
1 35129U 99025DLH 19256.15942335  .00000861  00000-0  49614-3 0  9992
2 35129  98.2866 228.5539 0142242  40.7537 320.4170 14.06472838583518
Source of the keplerian elements: AFSPC